Time,TemperatureF,DewpointF,PressureIn,WindDirection,WindDirectionDegrees,WindSpeedMPH,WindSpeedGustMPH,Humidity,HourlyPrecipIn,Conditions,Clouds,dailyrainin,SoftwareType,DateUTC
2013-04-11 00:03:00,58.1,37.9,30.07,ENE,57,0.0,0.0,47,0.00,,,0.00,WUHU216WMR968SP,2013-04-11 07:03:00,
2013-04-11 00:08:00,58.1,37.9,30.07,ENE,57,0.0,0.0,47,0.00,,,0.00,WUHU216WMR968SP,2013-04-11 07:08:00,
2013-04-11 00:13:00,58.1,37.9,30.07,ENE,57,0.0,0.0,47,0.00,,,0.00,WUHU216WMR968SP,2013-04-11 07:13:00,
2013-04-11 00:18:00,58.1,37.9,30.07,ENE,57,0.0,0.0,47,0.00,,,0.00,WUHU216WMR968SP,2013-04-11 07:18:00,
2013-04-11 00:23:00,58.1,37.9,30.07,ENE,57,0.0,0.0,47,0.00,,,0.00,WUHU216WMR968SP,2013-04-11 07:23:00,
2013-04-11 00:28:00,57.9,37.7,30.07,NE,47,0.0,0.0,47,0.00,,,0.00,WUHU216WMR968SP,2013-04-11 07:28:00,
2013-04-11 00:33:00,57.6,37.5,30.07,NE,47,0.0,0.0,47,0.00,,,0.00,WUHU216WMR968SP,2013-04-11 07:33:00,
2013-04-11 00:38:00,57.6,37.5,30.07,NE,47,0.0,0.0,47,0.00,,,0.00,WUHU216WMR968SP,2013-04-11 07:38:00,
2013-04-11 00:43:00,57.6,37.5,30.07,NE,45,0.0,0.0,47,0.00,,,0.00,WUHU216WMR968SP,2013-04-11 07:43:00,
2013-04-11 00:48:00,57.7,37.6,30.07,NE,45,0.0,0.0,47,0.00,,,0.00,WUHU216WMR968SP,2013-04-11 07:48:00,
2013-04-11 00:53:00,57.7,37.6,30.07,NE,45,0.0,0.0,47,0.00,,,0.00,WUHU216WMR968SP,2013-04-11 07:53:00,
2013-04-11 00:58:00,57.6,37.5,30.07,NE,45,0.0,0.0,47,0.00,,,0.00,WUHU216WMR968SP,2013-04-11 07:58:00,
2013-04-11 01:03:00,57.7,37.6,30.07,NE,45,0.0,0.0,47,0.00,,,0.00,WUHU216WMR968SP,2013-04-11 08:03:00,
2013-04-11 01:08:00,57.9,37.7,30.07,NE,45,0.0,0.0,47,0.00,,,0.00,WUHU216WMR968SP,2013-04-11 08:08:00,
2013-04-11 01:13:00,57.9,37.7,30.07,NE,45,0.0,0.0,47,0.00,,,0.00,WUHU216WMR968SP,2013-04-11 08:13:00,
2013-04-11 01:18:00,57.9,37.7,30.07,NE,45,0.0,0.0,47,0.00,,,0.00,WUHU216WMR968SP,2013-04-11 08:18:00,
2013-04-11 01:23:00,57.9,37.7,30.07,NE,45,0.0,0.0,47,0.00,,,0.00,WUHU216WMR968SP,2013-04-11 08:23:00,
2013-04-11 01:28:00,57.7,37.6,30.07,NE,45,0.0,0.0,47,0.00,,,0.00,WUHU216WMR968SP,2013-04-11 08:28:00,
2013-04-11 01:33:00,57.7,37.6,30.07,NE,45,0.0,0.0,47,0.00,,,0.00,WUHU216WMR968SP,2013-04-11 08:33:00,
2013-04-11 01:38:00,57.6,37.5,30.07,NE,45,0.0,0.0,47,0.00,,,0.00,WUHU216WMR968SP,2013-04-11 08:38:00,
2013-04-11 01:43:00,57.4,37.3,30.07,NE,45,0.0,0.0,47,0.00,,,0.00,WUHU216WMR968SP,2013-04-11 08:43:00,
2013-04-11 01:48:00,57.4,37.3,30.07,NE,45,0.0,0.0,47,0.00,,,0.00,WUHU216WMR968SP,2013-04-11 08:48:00,
2013-04-11 01:53:00,57.4,37.3,30.07,NE,45,0.0,0.0,47,0.00,,,0.00,WUHU216WMR968SP,2013-04-11 08:53:00,
2013-04-11 01:58:00,57.4,37.3,30.07,NE,45,0.0,0.0,47,0.00,,,0.00,WUHU216WMR968SP,2013-04-11 08:58:00,
2013-04-11 02:03:00,57.2,37.1,30.07,NE,45,0.0,0.0,47,0.00,,,0.00,WUHU216WMR968SP,2013-04-11 09:03:00,
2013-04-11 02:08:00,57.0,36.9,30.04,NE,45,0.0,0.0,47,0.00,,,0.00,WUHU216WMR968SP,2013-04-11 09:08:00,
2013-04-11 02:13:00,56.7,36.6,30.04,NE,45,0.0,0.0,47,0.00,,,0.00,WUHU216WMR968SP,2013-04-11 09:13:00,
2013-04-11 02:19:00,56.5,36.5,30.04,NE,45,0.0,0.0,47,0.00,,,0.00,WUHU216WMR968SP,2013-04-11 09:19:00,
2013-04-11 02:24:00,56.3,36.3,30.07,NE,45,0.0,0.0,47,0.00,,,0.00,WUHU216WMR968SP,2013-04-11 09:24:00,
2013-04-11 02:29:00,56.1,36.1,30.07,NE,45,0.0,0.0,47,0.00,,,0.00,WUHU216WMR968SP,2013-04-11 09:29:00,
2013-04-11 02:34:00,55.9,37.5,30.07,NE,45,0.0,0.0,50,0.00,,,0.00,WUHU216WMR968SP,2013-04-11 09:34:00,
2013-04-11 02:39:00,56.1,37.7,30.04,NE,45,0.0,0.0,50,0.00,,,0.00,WUHU216WMR968SP,2013-04-11 09:39:00,
2013-04-11 02:44:00,56.3,37.9,30.04,NE,45,0.0,0.0,50,0.00,,,0.00,WUHU216WMR968SP,2013-04-11 09:44:00,
2013-04-11 02:49:00,56.5,38.1,30.04,NE,45,0.0,0.0,50,0.00,,,0.00,WUHU216WMR968SP,2013-04-11 09:49:00,
2013-04-11 02:54:00,56.5,38.1,30.04,NE,45,0.0,0.0,50,0.00,,,0.00,WUHU216WMR968SP,2013-04-11 09:54:00,
2013-04-11 02:59:00,56.5,38.1,30.04,NE,45,0.0,0.0,50,0.00,,,0.00,WUHU216WMR968SP,2013-04-11 09:59:00,
2013-04-11 03:04:00,56.5,38.1,30.04,NE,45,0.0,0.0,50,0.00,,,0.00,WUHU216WMR968SP,2013-04-11 10:04:00,
2013-04-11 03:09:00,56.3,37.9,30.04,NE,45,0.0,0.0,50,0.00,,,0.00,WUHU216WMR968SP,2013-04-11 10:09:00,
2013-04-11 03:14:00,56.5,38.1,30.04,NE,45,0.0,0.0,50,0.00,,,0.00,WUHU216WMR968SP,2013-04-11 10:14:00,
2013-04-11 03:19:00,56.7,36.6,30.04,NE,45,0.0,0.0,47,0.00,,,0.00,WUHU216WMR968SP,2013-04-11 10:19:00,
2013-04-11 03:24:00,56.5,36.5,30.04,NE,45,0.0,0.0,47,0.00,,,0.00,WUHU216WMR968SP,2013-04-11 10:24:00,
2013-04-11 03:29:00,56.5,36.5,30.04,NE,45,0.0,0.0,47,0.00,,,0.00,WUHU216WMR968SP,2013-04-11 10:29:00,
2013-04-11 03:34:00,56.7,36.6,30.04,NE,45,0.0,0.0,47,0.00,,,0.00,WUHU216WMR968SP,2013-04-11 10:34:00,
2013-04-11 03:39:00,56.7,36.6,30.01,NE,45,0.0,0.0,47,0.00,,,0.00,WUHU216WMR968SP,2013-04-11 10:39:00,
2013-04-11 03:44:00,56.8,36.7,30.01,NE,45,0.0,0.0,47,0.00,,,0.00,WUHU216WMR968SP,2013-04-11 10:44:00,
2013-04-11 03:49:00,56.8,36.7,30.01,NE,45,0.0,0.0,47,0.00,,,0.00,WUHU216WMR968SP,2013-04-11 10:49:00,
2013-04-11 03:54:00,56.8,36.7,30.04,NE,45,0.0,0.0,47,0.00,,,0.00,WUHU216WMR968SP,2013-04-11 10:54:00,
2013-04-11 03:59:00,56.8,36.7,30.04,NE,45,0.0,0.0,47,0.00,,,0.00,WUHU216WMR968SP,2013-04-11 10:59:00,
2013-04-11 04:04:00,57.0,36.9,30.04,NE,45,0.0,0.0,47,0.00,,,0.00,WUHU216WMR968SP,2013-04-11 11:04:00,
2013-04-11 04:09:00,57.0,36.9,30.04,NE,45,0.0,0.0,47,0.00,,,0.00,WUHU216WMR968SP,2013-04-11 11:09:00,
2013-04-11 04:14:00,56.8,36.7,30.04,NE,45,0.0,0.0,47,0.00,,,0.00,WUHU216WMR968SP,2013-04-11 11:14:00,
2013-04-11 04:19:00,56.7,36.6,30.04,NE,45,0.0,0.0,47,0.00,,,0.00,WUHU216WMR968SP,2013-04-11 11:19:00,
2013-04-11 04:24:00,56.5,36.5,30.01,NE,45,0.0,0.0,47,0.00,,,0.00,WUHU216WMR968SP,2013-04-11 11:24:00,
2013-04-11 04:29:00,56.1,36.1,30.01,NE,45,0.0,0.0,47,0.00,,,0.00,WUHU216WMR968SP,2013-04-11 11:29:00,
2013-04-11 04:34:00,56.1,36.1,30.01,NE,45,0.0,0.0,47,0.00,,,0.00,WUHU216WMR968SP,2013-04-11 11:34:00,
2013-04-11 04:39:00,56.1,36.1,30.01,NE,45,0.0,0.0,47,0.00,,,0.00,WUHU216WMR968SP,2013-04-11 11:39:00,
2013-04-11 04:44:00,56.5,36.5,30.01,NE,45,0.0,0.0,47,0.00,,,0.00,WUHU216WMR968SP,2013-04-11 11:44:00,
2013-04-11 04:49:00,56.8,36.7,30.01,NE,45,0.0,0.0,47,0.00,,,0.00,WUHU216WMR968SP,2013-04-11 11:49:00,
2013-04-11 04:54:00,57.0,36.9,30.01,NE,45,0.0,0.0,47,0.00,,,0.00,WUHU216WMR968SP,2013-04-11 11:54:00,
2013-04-11 04:59:00,57.2,37.1,30.01,NE,45,0.0,0.0,47,0.00,,,0.00,WUHU216WMR968SP,2013-04-11 11:59:00,
2013-04-11 05:04:00,57.4,37.3,30.01,NE,45,0.0,0.0,47,0.00,,,0.00,WUHU216WMR968SP,2013-04-11 12:04:00,
2013-04-11 05:09:00,57.6,37.5,30.01,NE,45,0.0,0.0,47,0.00,,,0.00,WUHU216WMR968SP,2013-04-11 12:09:00,
2013-04-11 05:14:00,57.6,37.5,30.01,NE,45,0.0,0.0,47,0.00,,,0.00,WUHU216WMR968SP,2013-04-11 12:14:00,
2013-04-11 05:19:00,57.6,37.5,30.01,NE,45,0.0,0.0,47,0.00,,,0.00,WUHU216WMR968SP,2013-04-11 12:19:00,
2013-04-11 05:24:00,57.6,37.5,30.01,NE,45,0.0,0.0,47,0.00,,,0.00,WUHU216WMR968SP,2013-04-11 12:24:00,
2013-04-11 05:29:00,57.6,37.5,30.01,NE,45,0.0,0.0,47,0.00,,,0.00,WUHU216WMR968SP,2013-04-11 12:29:00,
2013-04-11 05:34:00,57.4,37.3,30.01,NE,45,0.0,0.0,47,0.00,,,0.00,WUHU216WMR968SP,2013-04-11 12:34:00,
2013-04-11 05:39:00,57.4,37.3,30.01,NE,45,0.0,0.0,47,0.00,,,0.00,WUHU216WMR968SP,2013-04-11 12:39:00,
2013-04-11 05:44:00,57.4,37.3,30.01,NE,45,0.0,0.0,47,0.00,,,0.00,WUHU216WMR968SP,2013-04-11 12:44:00,
2013-04-11 05:49:00,57.2,37.1,30.01,NE,45,0.0,0.0,47,0.00,,,0.00,WUHU216WMR968SP,2013-04-11 12:49:00,
2013-04-11 05:54:00,57.4,37.3,30.01,NE,45,0.0,0.0,47,0.00,,,0.00,WUHU216WMR968SP,2013-04-11 12:54:00,
2013-04-11 05:59:00,57.6,37.5,30.01,NE,45,0.0,0.0,47,0.00,,,0.00,WUHU216WMR968SP,2013-04-11 12:59:00,
2013-04-11 06:04:00,57.4,37.3,30.01,NE,45,0.0,0.0,47,0.00,,,0.00,WUHU216WMR968SP,2013-04-11 13:04:00,
2013-04-11 06:09:00,57.2,37.1,30.01,NE,45,0.0,0.0,47,0.00,,,0.00,WUHU216WMR968SP,2013-04-11 13:09:00,
2013-04-11 06:14:00,57.2,37.1,30.01,NE,45,0.0,0.0,47,0.00,,,0.00,WUHU216WMR968SP,2013-04-11 13:14:00,
2013-04-11 06:19:00,56.8,36.7,30.01,NE,44,0.0,0.0,47,0.00,,,0.00,WUHU216WMR968SP,2013-04-11 13:19:00,
2013-04-11 06:24:00,56.8,36.7,30.01,NE,45,0.0,0.0,47,0.00,,,0.00,WUHU216WMR968SP,2013-04-11 13:24:00,
2013-04-11 06:29:00,56.8,36.7,30.01,NE,45,0.0,0.0,47,0.00,,,0.00,WUHU216WMR968SP,2013-04-11 13:29:00,
2013-04-11 06:34:00,56.8,36.7,30.01,NE,45,0.0,0.0,47,0.00,,,0.00,WUHU216WMR968SP,2013-04-11 13:34:00,
2013-04-11 06:39:00,56.3,36.3,30.01,NE,45,0.0,0.0,47,0.00,,,0.00,WUHU216WMR968SP,2013-04-11 13:39:00,
2013-04-11 06:44:00,55.9,35.9,30.01,NE,44,0.0,0.0,47,0.00,,,0.00,WUHU216WMR968SP,2013-04-11 13:44:00,
2013-04-11 06:49:00,55.8,35.8,30.01,NE,45,0.0,0.0,47,0.00,,,0.00,WUHU216WMR968SP,2013-04-11 13:49:00,
2013-04-11 06:54:00,56.1,36.1,30.01,NE,45,0.0,0.0,47,0.00,,,0.00,WUHU216WMR968SP,2013-04-11 13:54:00,
2013-04-11 06:59:00,56.3,36.3,30.01,NE,45,0.0,0.0,47,0.00,,,0.00,WUHU216WMR968SP,2013-04-11 13:59:00,
2013-04-11 07:04:00,56.3,36.3,30.01,NE,45,0.0,0.0,47,0.00,,,0.00,WUHU216WMR968SP,2013-04-11 14:04:00,
2013-04-11 07:09:00,56.8,36.7,30.01,NE,45,0.0,0.0,47,0.00,,,0.00,WUHU216WMR968SP,2013-04-11 14:09:00,
2013-04-11 07:14:00,57.4,37.3,30.01,NE,45,0.0,0.0,47,0.00,,,0.00,WUHU216WMR968SP,2013-04-11 14:14:00,
2013-04-11 07:19:00,58.1,37.9,30.01,NE,45,0.0,0.0,47,0.00,,,0.00,WUHU216WMR968SP,2013-04-11 14:19:00,
2013-04-11 07:24:00,59.2,38.9,30.01,NE,45,0.0,0.0,47,0.00,,,0.00,WUHU216WMR968SP,2013-04-11 14:24:00,
2013-04-11 07:29:00,60.4,40.0,30.01,NE,45,0.0,0.0,47,0.00,,,0.00,WUHU216WMR968SP,2013-04-11 14:29:00,
2013-04-11 07:34:00,61.7,40.7,30.01,NE,45,0.0,0.0,46,0.00,,,0.00,WUHU216WMR968SP,2013-04-11 14:34:00,
2013-04-11 07:39:00,62.8,41.7,30.01,NE,45,0.0,0.0,46,0.00,,,0.00,WUHU216WMR968SP,2013-04-11 14:39:00,
2013-04-11 07:44:00,63.9,42.7,30.01,NE,45,0.0,0.0,46,0.00,,,0.00,WUHU216WMR968SP,2013-04-11 14:44:00,
2013-04-11 07:49:00,65.1,43.2,30.01,NE,45,0.0,0.0,45,0.00,,,0.00,WUHU216WMR968SP,2013-04-11 14:49:00,
2013-04-11 07:54:00,65.5,43.5,30.01,NE,45,0.0,0.0,45,0.00,,,0.00,WUHU216WMR968SP,2013-04-11 14:54:00,
2013-04-11 07:59:00,65.7,43.7,30.01,NE,45,0.0,0.0,45,0.00,,,0.00,WUHU216WMR968SP,2013-04-11 14:59:00,
2013-04-11 08:04:00,65.5,43.5,30.01,NE,44,0.0,0.0,45,0.00,,,0.00,WUHU216WMR968SP,2013-04-11 15:04:00,
2013-04-11 08:09:00,64.9,43.0,30.01,NE,44,0.0,0.0,45,0.00,,,0.00,WUHU216WMR968SP,2013-04-11 15:09:00,
2013-04-11 08:14:00,64.2,42.9,30.01,NE,44,0.0,0.0,46,0.00,,,0.00,WUHU216WMR968SP,2013-04-11 15:14:00,
2013-04-11 08:19:00,63.9,42.7,30.01,NE,45,0.0,0.0,46,0.00,,,0.00,WUHU216WMR968SP,2013-04-11 15:19:00,
2013-04-11 08:24:00,63.3,42.1,30.01,NE,45,0.0,0.0,46,0.00,,,0.00,WUHU216WMR968SP,2013-04-11 15:24:00,
2013-04-11 08:29:00,63.1,41.9,30.01,NE,45,0.0,0.0,46,0.00,,,0.00,WUHU216WMR968SP,2013-04-11 15:29:00,
2013-04-11 08:34:00,63.0,41.8,30.01,NE,45,0.0,0.0,46,0.00,,,0.00,WUHU216WMR968SP,2013-04-11 15:34:00,
2013-04-11 08:39:00,63.0,41.8,30.01,NE,45,0.0,0.0,46,0.00,,,0.00,WUHU216WMR968SP,2013-04-11 15:39:00,
2013-04-11 08:44:00,63.1,41.9,30.01,NE,45,0.0,0.0,46,0.00,,,0.00,WUHU216WMR968SP,2013-04-11 15:44:00,
2013-04-11 08:49:00,63.5,42.3,30.01,SW,232,0.0,0.0,46,0.00,,,0.00,WUHU216WMR968SP,2013-04-11 15:49:00,
2013-04-11 08:54:00,64.0,42.8,30.01,SW,233,3.6,4.9,46,0.00,,,0.00,WUHU216WMR968SP,2013-04-11 15:54:00,
2013-04-11 08:59:00,64.6,42.7,30.01,WSW,240,3.6,5.4,45,0.00,,,0.00,WUHU216WMR968SP,2013-04-11 15:59:00,
2013-04-11 09:04:00,64.8,42.9,30.01,WNW,293,2.2,5.4,45,0.00,,,0.00,WUHU216WMR968SP,2013-04-11 16:04:00,
2013-04-11 09:09:00,65.1,43.2,30.01,SW,236,2.2,5.4,45,0.00,,,0.00,WUHU216WMR968SP,2013-04-11 16:09:00,
2013-04-11 09:14:00,65.7,43.7,30.01,SSW,213,0.0,4.0,45,0.00,,,0.00,WUHU216WMR968SP,2013-04-11 16:14:00,
2013-04-11 09:19:00,65.8,43.8,30.01,South,188,0.0,4.0,45,0.00,,,0.00,WUHU216WMR968SP,2013-04-11 16:19:00,
2013-04-11 09:24:00,66.2,44.2,30.01,SSW,197,0.0,4.0,45,0.00,,,0.00,WUHU216WMR968SP,2013-04-11 16:24:00,
2013-04-11 09:29:00,66.7,44.6,30.01,SSW,196,0.0,0.0,45,0.00,,,0.00,WUHU216WMR968SP,2013-04-11 16:29:00,
2013-04-11 09:34:00,67.3,45.2,30.01,SSW,194,3.1,4.0,45,0.00,,,0.00,WUHU216WMR968SP,2013-04-11 16:34:00,
2013-04-11 09:39:00,67.8,45.6,30.01,South,183,0.0,4.0,45,0.00,,,0.00,WUHU216WMR968SP,2013-04-11 16:39:00,
2013-04-11 09:44:00,68.4,46.2,30.01,SE,126,3.6,4.9,45,0.00,,,0.00,WUHU216WMR968SP,2013-04-11 16:44:00,
2013-04-11 09:49:00,69.1,46.8,30.01,SSE,155,0.0,5.4,45,0.00,,,0.00,WUHU216WMR968SP,2013-04-11 16:49:00,
2013-04-11 09:54:00,69.4,47.1,30.01,SW,229,0.0,5.4,45,0.00,,,0.00,WUHU216WMR968SP,2013-04-11 16:54:00,
2013-04-11 09:59:00,69.6,47.3,30.01,SE,142,0.0,4.0,45,0.00,,,0.00,WUHU216WMR968SP,2013-04-11 16:59:00,
2013-04-11 10:04:00,70.0,47.0,30.01,SE,125,0.0,4.0,44,0.00,,,0.00,WUHU216WMR968SP,2013-04-11 17:04:00,
2013-04-11 10:09:00,70.3,47.3,29.98,SE,127,0.0,4.9,44,0.00,,,0.00,WUHU216WMR968SP,2013-04-11 17:09:00,
2013-04-11 10:14:00,70.7,47.7,29.98,West,262,3.1,4.9,44,0.00,,,0.00,WUHU216WMR968SP,2013-04-11 17:14:00,
2013-04-11 10:19:00,70.7,47.7,29.98,SSW,196,3.6,4.9,44,0.00,,,0.00,WUHU216WMR968SP,2013-04-11 17:19:00,
2013-04-11 10:24:00,71.1,48.0,29.98,SSW,207,0.0,4.9,44,0.00,,,0.00,WUHU216WMR968SP,2013-04-11 17:24:00,
2013-04-11 10:29:00,71.4,48.3,29.98,SW,218,3.6,6.3,44,0.00,,,0.00,WUHU216WMR968SP,2013-04-11 17:29:00,
2013-04-11 10:34:00,72.0,48.9,29.98,SSW,202,3.1,6.3,44,0.00,,,0.00,WUHU216WMR968SP,2013-04-11 17:34:00,
2013-04-11 10:39:00,72.3,49.1,29.98,SW,216,2.7,6.3,44,0.00,,,0.00,WUHU216WMR968SP,2013-04-11 17:39:00,
2013-04-11 10:44:00,72.9,49.7,29.98,SSE,150,2.2,5.4,44,0.00,,,0.00,WUHU216WMR968SP,2013-04-11 17:44:00,
2013-04-11 10:49:00,73.6,49.7,29.98,SSE,157,3.1,5.8,43,0.00,,,0.00,WUHU216WMR968SP,2013-04-11 17:49:00,
2013-04-11 10:54:00,73.9,49.9,29.98,SSW,205,2.7,5.8,43,0.00,,,0.00,WUHU216WMR968SP,2013-04-11 17:54:00,
2013-04-11 10:59:00,74.1,50.1,29.98,SSW,196,4.9,7.2,43,0.00,,,0.00,WUHU216WMR968SP,2013-04-11 17:59:00,
2013-04-11 11:04:00,74.3,50.3,29.98,WSW,240,4.9,7.2,43,0.00,,,0.00,WUHU216WMR968SP,2013-04-11 18:04:00,
2013-04-11 11:09:00,74.3,50.3,29.98,ESE,111,3.1,6.3,43,0.00,,,0.00,WUHU216WMR968SP,2013-04-11 18:09:00,
2013-04-11 11:14:00,74.7,50.7,29.98,ESE,102,3.6,6.3,43,0.00,,,0.00,WUHU216WMR968SP,2013-04-11 18:14:00,
2013-04-11 11:19:00,75.0,50.9,29.98,SSE,162,3.1,8.1,43,0.00,,,0.00,WUHU216WMR968SP,2013-04-11 18:19:00,
2013-04-11 11:24:00,75.4,51.3,29.95,WSW,241,4.0,8.1,43,0.00,,,0.00,WUHU216WMR968SP,2013-04-11 18:24:00,
2013-04-11 11:29:00,75.4,51.3,29.95,SW,223,3.1,6.3,43,0.00,,,0.00,WUHU216WMR968SP,2013-04-11 18:29:00,
2013-04-11 11:34:00,75.6,51.5,29.95,ESE,114,4.0,6.3,43,0.00,,,0.00,WUHU216WMR968SP,2013-04-11 18:34:00,
2013-04-11 11:39:00,75.9,51.8,29.95,SW,214,4.5,5.8,43,0.00,,,0.00,WUHU216WMR968SP,2013-04-11 18:39:00,
2013-04-11 11:44:00,75.7,51.6,29.95,North,357,3.6,8.3,43,0.00,,,0.00,WUHU216WMR968SP,2013-04-11 18:44:00,
2013-04-11 11:49:00,75.4,51.3,29.95,SW,226,0.0,8.3,43,0.00,,,0.00,WUHU216WMR968SP,2013-04-11 18:49:00,
2013-04-11 11:54:00,75.6,51.5,29.95,SW,219,0.0,6.3,43,0.00,,,0.00,WUHU216WMR968SP,2013-04-11 18:54:00,
2013-04-11 11:59:00,75.4,51.3,29.95,WSW,253,4.9,7.6,43,0.00,,,0.00,WUHU216WMR968SP,2013-04-11 18:59:00,
2013-04-11 12:04:00,75.6,51.5,29.95,SSW,193,3.6,8.1,43,0.00,,,0.00,WUHU216WMR968SP,2013-04-11 19:04:00,
2013-04-11 12:09:00,76.1,51.9,29.95,SSW,198,4.5,8.1,43,0.00,,,0.00,WUHU216WMR968SP,2013-04-11 19:09:00,
2013-04-11 12:15:00,76.6,52.4,29.95,East,86,4.9,6.3,43,0.00,,,0.00,WUHU216WMR968SP,2013-04-11 19:15:00,
2013-04-11 12:20:00,77.2,52.9,29.95,SSW,213,4.0,6.3,43,0.00,,,0.00,WUHU216WMR968SP,2013-04-11 19:20:00,
2013-04-11 12:25:00,76.8,52.6,29.92,SW,233,4.5,8.3,43,0.00,,,0.00,WUHU216WMR968SP,2013-04-11 19:25:00,
2013-04-11 12:30:00,76.6,52.4,29.92,ESE,113,6.7,8.3,43,0.00,,,0.00,WUHU216WMR968SP,2013-04-11 19:30:00,
2013-04-11 12:35:00,77.2,52.9,29.92,SE,133,3.1,8.3,43,0.00,,,0.00,WUHU216WMR968SP,2013-04-11 19:35:00,
2013-04-11 12:40:00,77.4,53.1,29.89,SW,232,6.7,8.1,43,0.00,,,0.00,WUHU216WMR968SP,2013-04-11 19:40:00,
2013-04-11 12:45:00,76.8,52.6,29.89,SW,235,6.3,11.9,43,0.00,,,0.00,WUHU216WMR968SP,2013-04-11 19:45:00,
2013-04-11 12:50:00,75.6,51.5,29.89,SSW,199,4.9,11.9,43,0.00,,,0.00,WUHU216WMR968SP,2013-04-11 19:50:00,
2013-04-11 12:55:00,75.0,50.9,29.92,SW,222,5.4,9.6,43,0.00,,,0.00,WUHU216WMR968SP,2013-04-11 19:55:00,
2013-04-11 13:00:00,74.5,50.5,29.92,SW,223,4.5,11.0,43,0.00,,,0.00,WUHU216WMR968SP,2013-04-11 20:00:00,
2013-04-11 13:07:00,74.5,50.5,29.92,SW,229,7.6,11.4,43,0.00,,,0.00,WUHU216WMR968SP,2013-04-11 20:07:00,
2013-04-11 13:16:00,74.1,50.1,29.92,SSW,211,6.3,11.0,43,0.00,,,0.00,WUHU216WMR968SP,2013-04-11 20:16:00,
2013-04-11 13:21:00,74.1,50.1,29.92,WSW,253,4.9,11.0,43,0.00,,,0.00,WUHU216WMR968SP,2013-04-11 20:21:00,
2013-04-11 13:26:00,74.1,50.1,29.92,WSW,250,4.9,10.5,43,0.00,,,0.00,WUHU216WMR968SP,2013-04-11 20:26:00,
2013-04-11 13:31:00,73.4,49.5,29.92,WSW,239,4.9,9.2,43,0.00,,,0.00,WUHU216WMR968SP,2013-04-11 20:31:00,
2013-04-11 13:36:00,73.6,49.7,29.89,West,267,5.8,9.2,43,0.00,,,0.00,WUHU216WMR968SP,2013-04-11 20:36:00,
2013-04-11 13:41:00,73.0,49.8,29.89,SW,219,4.9,8.3,44,0.00,,,0.00,WUHU216WMR968SP,2013-04-11 20:41:00,
2013-04-11 13:46:00,73.0,49.8,29.89,SSW,198,4.9,8.3,44,0.00,,,0.00,WUHU216WMR968SP,2013-04-11 20:46:00,
2013-04-11 13:51:00,73.6,49.7,29.89,SSW,205,4.9,8.7,43,0.00,,,0.00,WUHU216WMR968SP,2013-04-11 20:51:00,
2013-04-11 13:56:00,74.3,50.3,29.89,SSW,210,5.8,8.7,43,0.00,,,0.00,WUHU216WMR968SP,2013-04-11 20:56:00,
2013-04-11 14:01:00,74.7,50.7,29.89,WNW,302,6.3,8.7,43,0.00,,,0.00,WUHU216WMR968SP,2013-04-11 21:01:00,
2013-04-11 14:06:00,74.1,50.1,29.89,SSW,210,7.6,10.5,43,0.00,,,0.00,WUHU216WMR968SP,2013-04-11 21:06:00,
2013-04-11 14:11:00,74.1,50.1,29.89,SSW,211,4.9,10.5,43,0.00,,,0.00,WUHU216WMR968SP,2013-04-11 21:11:00,
2013-04-11 14:17:00,74.3,50.3,29.89,South,181,5.4,8.3,43,0.00,,,0.00,WUHU216WMR968SP,2013-04-11 21:17:00,
2013-04-11 14:22:00,74.7,50.7,29.86,WSW,242,7.2,8.7,43,0.00,,,0.00,WUHU216WMR968SP,2013-04-11 21:22:00,
2013-04-11 14:27:00,74.7,50.7,29.86,SW,214,4.0,11.0,43,0.00,,,0.00,WUHU216WMR968SP,2013-04-11 21:27:00,
2013-04-11 14:32:00,74.3,50.3,29.86,SW,222,6.3,11.0,43,0.00,,,0.00,WUHU216WMR968SP,2013-04-11 21:32:00,
2013-04-11 14:37:00,74.1,50.1,29.86,West,265,5.4,10.5,43,0.00,,,0.00,WUHU216WMR968SP,2013-04-11 21:37:00,
2013-04-11 14:42:00,73.9,49.9,29.86,WSW,246,4.9,8.7,43,0.00,,,0.00,WUHU216WMR968SP,2013-04-11 21:42:00,
2013-04-11 14:47:00,73.9,49.9,29.86,South,187,8.1,10.1,43,0.00,,,0.00,WUHU216WMR968SP,2013-04-11 21:47:00,
2013-04-11 14:52:00,74.3,50.3,29.86,SSW,213,5.4,10.1,43,0.00,,,0.00,WUHU216WMR968SP,2013-04-11 21:52:00,
2013-04-11 14:57:00,74.5,50.5,29.86,SSW,192,3.1,8.7,43,0.00,,,0.00,WUHU216WMR968SP,2013-04-11 21:57:00,
2013-04-11 15:02:00,74.8,50.8,29.86,SW,220,2.2,10.1,43,0.00,,,0.00,WUHU216WMR968SP,2013-04-11 22:02:00,
2013-04-11 15:07:00,74.7,50.7,29.86,SW,225,4.0,10.1,43,0.00,,,0.00,WUHU216WMR968SP,2013-04-11 22:07:00,
2013-04-11 15:12:00,74.3,50.3,29.86,SSW,208,6.7,8.7,43,0.00,,,0.00,WUHU216WMR968SP,2013-04-11 22:12:00,
2013-04-11 15:17:00,73.9,49.9,29.86,SSW,205,4.5,9.6,43,0.00,,,0.00,WUHU216WMR968SP,2013-04-11 22:17:00,
2013-04-11 15:22:00,74.1,50.1,29.86,SE,137,3.6,10.5,43,0.00,,,0.00,WUHU216WMR968SP,2013-04-11 22:22:00,
2013-04-11 15:27:00,73.9,49.9,29.86,SSW,200,5.8,10.5,43,0.00,,,0.00,WUHU216WMR968SP,2013-04-11 22:27:00,
2013-04-11 15:32:00,73.9,49.9,29.86,SSE,147,0.0,9.6,43,0.00,,,0.00,WUHU216WMR968SP,2013-04-11 22:32:00,
2013-04-11 15:37:00,73.9,49.9,29.83,SW,217,0.0,7.6,43,0.00,,,0.00,WUHU216WMR968SP,2013-04-11 22:37:00,
2013-04-11 15:42:00,73.6,49.7,29.83,SSW,212,0.0,0.0,43,0.00,,,0.00,WUHU216WMR968SP,2013-04-11 22:42:00,
2013-04-11 15:47:00,73.4,49.5,29.83,SSW,204,0.0,0.0,43,0.00,,,0.00,WUHU216WMR968SP,2013-04-11 22:47:00,
2013-04-11 15:52:00,73.0,49.8,29.83,SSW,212,0.0,0.0,44,0.00,,,0.00,WUHU216WMR968SP,2013-04-11 22:52:00,
2013-04-11 15:57:00,72.9,49.7,29.83,SSW,209,0.0,0.0,44,0.00,,,0.00,WUHU216WMR968SP,2013-04-11 22:57:00,
2013-04-11 16:02:00,72.7,49.5,29.83,SSW,207,0.0,0.0,44,0.00,,,0.00,WUHU216WMR968SP,2013-04-11 23:02:00,
2013-04-11 16:07:00,72.5,49.3,29.83,SW,235,0.0,0.0,44,0.00,,,0.00,WUHU216WMR968SP,2013-04-11 23:07:00,
2013-04-11 16:12:00,72.0,48.9,29.83,SW,226,0.0,0.0,44,0.00,,,0.00,WUHU216WMR968SP,2013-04-11 23:12:00,
2013-04-11 16:17:00,71.4,48.3,29.83,West,260,0.0,0.0,44,0.00,,,0.00,WUHU216WMR968SP,2013-04-11 23:17:00,
2013-04-11 16:22:00,71.2,48.1,29.83,SSW,205,0.0,0.0,44,0.00,,,0.00,WUHU216WMR968SP,2013-04-11 23:22:00,
2013-04-11 16:27:00,71.1,48.0,29.83,WSW,256,0.0,0.0,44,0.00,,,0.00,WUHU216WMR968SP,2013-04-11 23:27:00,
2013-04-11 16:32:00,70.5,47.5,29.83,SW,225,0.0,0.0,44,0.00,,,0.00,WUHU216WMR968SP,2013-04-11 23:32:00,
2013-04-11 16:37:00,70.2,49.0,29.83,WSW,251,0.0,0.0,47,0.00,,,0.00,WUHU216WMR968SP,2013-04-11 23:37:00,
2013-04-11 16:42:00,70.0,48.8,29.83,SW,214,0.0,0.0,47,0.00,,,0.00,WUHU216WMR968SP,2013-04-11 23:42:00,
2013-04-11 16:47:00,69.8,48.7,29.83,SW,216,0.0,0.0,47,0.00,,,0.00,WUHU216WMR968SP,2013-04-11 23:47:00,
2013-04-11 16:52:00,69.4,48.3,29.83,SW,225,0.0,0.0,47,0.00,,,0.00,WUHU216WMR968SP,2013-04-11 23:52:00,
2013-04-11 16:57:00,68.7,47.7,29.83,ESE,123,0.0,0.0,47,0.00,,,0.00,WUHU216WMR968SP,2013-04-11 23:57:00,
2013-04-11 17:02:00,68.5,47.5,29.83,WSW,242,0.0,0.0,47,0.00,,,0.00,WUHU216WMR968SP,2013-04-12 00:02:00,
2013-04-11 17:07:00,68.4,47.4,29.83,SW,216,0.0,0.0,47,0.00,,,0.00,WUHU216WMR968SP,2013-04-12 00:07:00,
2013-04-11 17:12:00,68.4,47.4,29.83,SSW,194,0.0,0.0,47,0.00,,,0.00,WUHU216WMR968SP,2013-04-12 00:12:00,
2013-04-11 17:17:00,68.2,47.2,29.83,SW,221,0.0,0.0,47,0.00,,,0.00,WUHU216WMR968SP,2013-04-12 00:17:00,
2013-04-11 17:23:00,68.0,47.0,29.83,SW,218,0.0,0.0,47,0.00,,,0.00,WUHU216WMR968SP,2013-04-12 00:23:00,
2013-04-11 17:28:00,67.8,46.8,29.83,WSW,245,0.0,0.0,47,0.00,,,0.00,WUHU216WMR968SP,2013-04-12 00:28:00,
2013-04-11 17:33:00,67.6,46.6,29.83,South,189,0.0,0.0,47,0.00,,,0.00,WUHU216WMR968SP,2013-04-12 00:33:00,
2013-04-11 17:38:00,67.5,46.6,29.83,SSE,153,3.1,6.3,47,0.00,,,0.00,WUHU216WMR968SP,2013-04-12 00:38:00,
2013-04-11 17:43:00,67.5,46.6,29.83,SE,146,5.4,6.3,47,0.00,,,0.00,WUHU216WMR968SP,2013-04-12 00:43:00,
2013-04-11 17:48:00,67.1,46.2,29.83,WSW,245,5.4,7.6,47,0.00,,,0.00,WUHU216WMR968SP,2013-04-12 00:48:00,
2013-04-11 17:53:00,66.9,46.0,29.83,WSW,246,4.9,7.6,47,0.00,,,0.00,WUHU216WMR968SP,2013-04-12 00:53:00,
2013-04-11 17:58:00,66.6,45.7,29.83,WSW,245,7.2,8.7,47,0.00,,,0.00,WUHU216WMR968SP,2013-04-12 00:58:00,
2013-04-11 18:03:00,66.2,45.4,29.83,SW,220,4.0,8.7,47,0.00,,,0.00,WUHU216WMR968SP,2013-04-12 01:03:00,
2013-04-11 18:08:00,66.2,45.4,29.83,SSW,204,4.0,8.1,47,0.00,,,0.00,WUHU216WMR968SP,2013-04-12 01:08:00,
2013-04-11 18:13:00,66.2,45.4,29.83,SSW,211,4.9,8.1,47,0.00,,,0.00,WUHU216WMR968SP,2013-04-12 01:13:00,
2013-04-11 18:18:00,66.0,46.9,29.83,SSW,211,4.5,6.3,50,0.00,,,0.00,WUHU216WMR968SP,2013-04-12 01:18:00,
2013-04-11 18:23:00,66.0,46.9,29.83,South,191,2.7,6.3,50,0.00,,,0.00,WUHU216WMR968SP,2013-04-12 01:23:00,
2013-04-11 18:28:00,65.8,46.7,29.83,SSE,157,3.6,6.3,50,0.00,,,0.00,WUHU216WMR968SP,2013-04-12 01:28:00,
2013-04-11 18:33:00,65.7,46.6,29.83,SE,137,4.5,6.3,50,0.00,,,0.00,WUHU216WMR968SP,2013-04-12 01:33:00,
2013-04-11 18:38:00,65.5,46.4,29.83,ESE,122,3.1,6.3,50,0.00,,,0.00,WUHU216WMR968SP,2013-04-12 01:38:00,
2013-04-11 18:43:00,64.9,45.8,29.83,South,170,4.9,6.3,50,0.00,,,0.00,WUHU216WMR968SP,2013-04-12 01:43:00,
2013-04-11 18:48:00,64.8,45.8,29.83,SW,224,3.6,6.3,50,0.00,,,0.00,WUHU216WMR968SP,2013-04-12 01:48:00,
2013-04-11 18:53:00,64.4,45.4,29.83,SW,219,3.6,5.8,50,0.00,,,0.00,WUHU216WMR968SP,2013-04-12 01:53:00,
2013-04-11 18:58:00,64.0,45.5,29.83,SSW,213,3.1,6.3,51,0.00,,,0.00,WUHU216WMR968SP,2013-04-12 01:58:00,
2013-04-11 19:03:00,63.9,46.5,29.83,South,189,4.5,6.3,53,0.00,,,0.00,WUHU216WMR968SP,2013-04-12 02:03:00,
2013-04-11 19:08:00,63.5,46.1,29.81,SSW,209,3.1,6.3,53,0.00,,,0.00,WUHU216WMR968SP,2013-04-12 02:08:00,
2013-04-11 19:13:00,63.3,45.9,29.81,SSE,151,3.1,6.3,53,0.00,,,0.00,WUHU216WMR968SP,2013-04-12 02:13:00,
2013-04-11 19:18:00,62.8,45.5,29.81,SSW,195,2.2,5.8,53,0.00,,,0.00,WUHU216WMR968SP,2013-04-12 02:18:00,
2013-04-11 19:23:00,63.0,45.7,29.83,SW,224,2.7,6.3,53,0.00,,,0.00,WUHU216WMR968SP,2013-04-12 02:23:00,
2013-04-11 19:28:00,63.0,45.7,29.83,SSW,204,2.2,6.3,53,0.00,,,0.00,WUHU216WMR968SP,2013-04-12 02:28:00,
2013-04-11 19:33:00,63.1,45.8,29.83,SSW,206,2.2,5.4,53,0.00,,,0.00,WUHU216WMR968SP,2013-04-12 02:33:00,
2013-04-11 19:38:00,63.0,45.7,29.83,South,171,4.9,8.3,53,0.00,,,0.00,WUHU216WMR968SP,2013-04-12 02:38:00,
2013-04-11 19:43:00,63.0,45.7,29.83,ESE,123,2.7,8.3,53,0.00,,,0.00,WUHU216WMR968SP,2013-04-12 02:43:00,
2013-04-11 19:48:00,62.6,45.8,29.83,SSW,193,3.1,6.7,54,0.00,,,0.00,WUHU216WMR968SP,2013-04-12 02:48:00,
2013-04-11 19:53:00,62.2,45.4,29.86,SSW,199,5.4,7.6,54,0.00,,,0.00,WUHU216WMR968SP,2013-04-12 02:53:00,
2013-04-11 19:58:00,61.9,45.1,29.86,SSW,193,3.6,8.1,54,0.00,,,0.00,WUHU216WMR968SP,2013-04-12 02:58:00,
2013-04-11 20:03:00,61.7,45.0,29.86,SSE,149,0.0,8.1,54,0.00,,,0.00,WUHU216WMR968SP,2013-04-12 03:03:00,
2013-04-11 20:08:00,61.7,45.0,29.86,SSW,200,2.2,6.3,54,0.00,,,0.00,WUHU216WMR968SP,2013-04-12 03:08:00,
2013-04-11 20:13:00,61.3,44.6,29.86,SE,139,3.1,6.3,54,0.00,,,0.00,WUHU216WMR968SP,2013-04-12 03:13:00,
2013-04-11 20:18:00,61.3,44.6,29.86,ESE,122,3.1,6.3,54,0.00,,,0.00,WUHU216WMR968SP,2013-04-12 03:18:00,
2013-04-11 20:23:00,61.2,45.0,29.86,SSW,206,3.6,6.3,55,0.00,,,0.00,WUHU216WMR968SP,2013-04-12 03:23:00,
2013-04-11 20:28:00,60.6,44.4,29.86,WSW,252,4.0,6.3,55,0.00,,,0.00,WUHU216WMR968SP,2013-04-12 03:28:00,
2013-04-11 20:33:00,60.4,44.2,29.86,SW,224,2.7,6.3,55,0.00,,,0.00,WUHU216WMR968SP,2013-04-12 03:33:00,
2013-04-11 20:38:00,59.9,43.8,29.86,ESE,109,2.2,5.8,55,0.00,,,0.00,WUHU216WMR968SP,2013-04-12 03:38:00,
2013-04-11 20:43:00,59.7,44.1,29.86,SE,139,2.7,5.4,56,0.00,,,0.00,WUHU216WMR968SP,2013-04-12 03:43:00,
2013-04-11 20:48:00,59.4,43.8,29.86,SSW,194,3.6,5.4,56,0.00,,,0.00,WUHU216WMR968SP,2013-04-12 03:48:00,
2013-04-11 20:53:00,59.2,44.1,29.86,East,98,0.0,4.0,57,0.00,,,0.00,WUHU216WMR968SP,2013-04-12 03:53:00,
2013-04-11 20:58:00,59.2,44.1,29.86,ESE,116,4.5,7.2,57,0.00,,,0.00,WUHU216WMR968SP,2013-04-12 03:58:00,
2013-04-11 21:03:00,59.2,44.1,29.86,SSW,213,0.0,7.2,57,0.00,,,0.00,WUHU216WMR968SP,2013-04-12 04:03:00,
2013-04-11 21:08:00,59.2,44.1,29.89,South,179,2.7,4.5,57,0.00,,,0.00,WUHU216WMR968SP,2013-04-12 04:08:00,
2013-04-11 21:13:00,59.2,44.1,29.89,SSW,207,0.0,4.0,57,0.00,,,0.00,WUHU216WMR968SP,2013-04-12 04:13:00,
2013-04-11 21:18:00,59.2,44.5,29.89,ESE,113,0.0,4.0,58,0.00,,,0.00,WUHU216WMR968SP,2013-04-12 04:18:00,
2013-04-11 21:23:00,59.2,44.5,29.89,SSW,193,2.7,4.0,58,0.00,,,0.00,WUHU216WMR968SP,2013-04-12 04:23:00,
2013-04-11 21:28:00,59.2,44.5,29.89,SSW,196,2.7,5.4,58,0.00,,,0.00,WUHU216WMR968SP,2013-04-12 04:28:00,
2013-04-11 21:33:00,59.2,44.5,29.89,SE,129,2.2,5.4,58,0.00,,,0.00,WUHU216WMR968SP,2013-04-12 04:33:00,
2013-04-11 21:38:00,59.4,44.7,29.89,SSW,196,0.0,4.9,58,0.00,,,0.00,WUHU216WMR968SP,2013-04-12 04:38:00,
2013-04-11 21:43:00,59.4,44.7,29.89,SE,128,0.0,3.1,58,0.00,,,0.00,WUHU216WMR968SP,2013-04-12 04:43:00,
2013-04-11 21:48:00,59.4,44.7,29.89,South,172,0.0,3.1,58,0.00,,,0.00,WUHU216WMR968SP,2013-04-12 04:48:00,
2013-04-11 21:53:00,59.4,44.7,29.89,SSE,163,0.0,3.1,58,0.00,,,0.00,WUHU216WMR968SP,2013-04-12 04:53:00,
2013-04-11 21:58:00,59.2,44.5,29.89,SSW,208,2.7,4.9,58,0.00,,,0.00,WUHU216WMR968SP,2013-04-12 04:58:00,
2013-04-11 22:03:00,59.2,44.5,29.89,SE,130,2.7,4.9,58,0.00,,,0.00,WUHU216WMR968SP,2013-04-12 05:03:00,
2013-04-11 22:08:00,59.2,44.5,29.89,South,185,0.0,4.0,58,0.00,,,0.00,WUHU216WMR968SP,2013-04-12 05:08:00,
2013-04-11 22:13:00,59.0,44.8,29.89,WSW,239,2.7,3.6,59,0.00,,,0.00,WUHU216WMR968SP,2013-04-12 05:13:00,
2013-04-11 22:18:00,58.8,45.1,29.89,SW,234,3.6,4.0,60,0.00,,,0.00,WUHU216WMR968SP,2013-04-12 05:18:00,
2013-04-11 22:23:00,58.8,45.1,29.89,SSW,210,0.0,4.0,60,0.00,,,0.00,WUHU216WMR968SP,2013-04-12 05:23:00,
2013-04-11 22:28:00,58.8,45.1,29.89,ESE,117,2.2,3.6,60,0.00,,,0.00,WUHU216WMR968SP,2013-04-12 05:28:00,
2013-04-11 22:33:00,58.8,45.1,29.89,South,184,0.0,3.6,60,0.00,,,0.00,WUHU216WMR968SP,2013-04-12 05:33:00,
2013-04-11 22:38:00,58.8,45.1,29.89,SW,236,2.2,4.0,60,0.00,,,0.00,WUHU216WMR968SP,2013-04-12 05:38:00,
2013-04-11 22:43:00,58.8,45.1,29.89,South,188,2.7,4.0,60,0.00,,,0.00,WUHU216WMR968SP,2013-04-12 05:43:00,
2013-04-11 22:48:00,58.6,44.9,29.89,SW,236,0.0,4.9,60,0.00,,,0.00,WUHU216WMR968SP,2013-04-12 05:48:00,
2013-04-11 22:53:00,58.6,45.3,29.89,SSW,198,2.7,4.9,61,0.00,,,0.00,WUHU216WMR968SP,2013-04-12 05:53:00,
2013-04-11 22:58:00,58.6,45.3,29.89,South,186,0.0,4.0,61,0.00,,,0.00,WUHU216WMR968SP,2013-04-12 05:58:00,
2013-04-11 23:03:00,58.6,45.3,29.89,SE,124,0.0,4.0,61,0.00,,,0.00,WUHU216WMR968SP,2013-04-12 06:03:00,
2013-04-11 23:08:00,58.6,45.3,29.89,SW,224,0.0,3.6,61,0.00,,,0.00,WUHU216WMR968SP,2013-04-12 06:08:00,
2013-04-11 23:13:00,58.6,45.3,29.89,South,191,0.0,4.0,61,0.00,,,0.00,WUHU216WMR968SP,2013-04-12 06:13:00,
2013-04-11 23:18:00,58.8,45.5,29.89,SW,218,2.7,4.0,61,0.00,,,0.00,WUHU216WMR968SP,2013-04-12 06:18:00,
2013-04-11 23:23:00,58.8,45.5,29.89,SSW,210,0.0,4.0,61,0.00,,,0.00,WUHU216WMR968SP,2013-04-12 06:23:00,
2013-04-11 23:28:00,58.8,45.5,29.89,SSW,211,0.0,4.0,61,0.00,,,0.00,WUHU216WMR968SP,2013-04-12 06:28:00,
2013-04-11 23:33:00,58.8,45.5,29.89,SW,216,2.2,4.0,61,0.00,,,0.00,WUHU216WMR968SP,2013-04-12 06:33:00,
2013-04-11 23:38:00,58.5,45.2,29.89,SW,222,0.0,4.0,61,0.00,,,0.00,WUHU216WMR968SP,2013-04-12 06:38:00,
2013-04-11 23:43:00,58.6,45.3,29.89,SW,227,2.2,4.0,61,0.00,,,0.00,WUHU216WMR968SP,2013-04-12 06:43:00,
2013-04-11 23:48:00,58.5,45.2,29.89,SW,231,0.0,3.6,61,0.00,,,0.00,WUHU216WMR968SP,2013-04-12 06:48:00,
2013-04-11 23:53:00,58.5,45.2,29.89,SW,225,2.7,5.4,61,0.00,,,0.00,WUHU216WMR968SP,2013-04-12 06:53:00,
2013-04-11 23:58:00,58.5,45.7,29.89,SSW,209,3.1,5.4,62,0.00,,,0.00,WUHU216WMR968SP,2013-04-12 06:58:00,